Time,TemperatureF,DewpointF,PressureIn,WindDirection,WindDirectionDegrees,WindSpeedMPH,WindSpeedGustMPH,Humidity,HourlyPrecipIn,Conditions,Clouds,dailyrainin,SoftwareType,DateUTC
2013-07-10 00:10:00,71.1,69.6,29.82,SW,223,2.0,2.0,95,0.00,,,0.00,Wunderground v.1.15,2013-07-10 04:10:00,
2013-07-10 00:15:00,71.1,69.6,29.82,SSW,205,1.0,2.0,95,0.00,,,0.00,Wunderground v.1.15,2013-07-10 04:15:00,
2013-07-10 00:25:00,70.9,69.7,29.82,SSW,205,0.0,0.0,96,0.00,,,0.00,Wunderground v.1.15,2013-07-10 04:25:00,
2013-07-10 00:34:00,71.1,69.9,29.82,SW,229,0.0,0.0,96,0.00,,,0.00,Wunderground v.1.15,2013-07-10 04:34:00,
2013-07-10 00:40:00,71.1,69.9,29.82,SW,229,0.0,3.0,96,0.00,,,0.00,Wunderground v.1.15,2013-07-10 04:40:00,
2013-07-10 00:50:00,71.1,69.9,29.82,SW,227,1.0,7.0,96,0.00,,,0.00,Wunderground v.1.15,2013-07-10 04:50:00,
2013-07-10 00:55:00,71.1,69.9,29.81,SW,224,2.0,7.0,96,0.00,,,0.00,Wunderground v.1.15,2013-07-10 04:55:00,
2013-07-10 01:05:00,71.3,69.8,29.81,SW,226,2.0,2.0,95,0.00,,,0.00,Wunderground v.1.15,2013-07-10 05:05:00,
2013-07-10 01:14:00,71.3,69.8,29.81,SW,232,2.0,6.0,95,0.00,,,0.00,Wunderground v.1.15,2013-07-10 05:14:00,
2013-07-10 01:20:00,71.3,69.8,29.81,SW,235,1.0,6.0,95,0.00,,,0.00,Wunderground v.1.15,2013-07-10 05:20:00,
2013-07-10 01:30:00,71.3,69.8,29.80,SW,218,1.0,1.0,95,0.00,,,0.00,Wunderground v.1.15,2013-07-10 05:30:00,
2013-07-10 01:39:00,71.3,69.8,29.80,SW,221,1.0,1.0,95,0.00,,,0.00,Wunderground v.1.15,2013-07-10 05:39:00,
2013-07-10 01:50:00,71.1,69.6,29.80,SW,225,3.0,3.0,95,0.00,,,0.00,Wunderground v.1.15,2013-07-10 05:50:00,
2013-07-10 02:00:00,70.9,69.4,29.80,SW,229,2.0,6.0,95,0.00,,,0.00,Wunderground v.1.15,2013-07-10 06:00:00,
2013-07-10 02:05:00,70.8,69.3,29.80,SW,231,1.0,6.0,95,0.00,,,0.00,Wunderground v.1.15,2013-07-10 06:05:00,
2013-07-10 02:14:00,70.8,69.3,29.79,SW,236,0.0,1.0,95,0.00,,,0.00,Wunderground v.1.15,2013-07-10 06:14:00,
2013-07-10 02:24:00,70.6,69.4,29.79,SW,215,0.0,1.0,96,0.00,,,0.00,Wunderground v.1.15,2013-07-10 06:24:00,
2013-07-10 02:30:00,70.6,69.4,29.79,SW,223,0.0,0.0,96,0.00,,,0.00,Wunderground v.1.15,2013-07-10 06:30:00,
2013-07-10 02:39:00,70.6,69.4,29.78,SW,215,0.0,4.0,96,0.00,,,0.00,Wunderground v.1.15,2013-07-10 06:39:00,
2013-07-10 02:49:00,70.6,69.4,29.78,SW,227,1.0,1.0,96,0.00,,,0.00,Wunderground v.1.15,2013-07-10 06:49:00,
2013-07-10 02:55:00,70.6,69.4,29.77,SW,222,1.0,1.0,96,0.00,,,0.00,Wunderground v.1.15,2013-07-10 06:55:00,
2013-07-10 03:05:00,70.6,69.4,29.77,SW,223,0.0,10.0,96,0.00,,,0.00,Wunderground v.1.15,2013-07-10 07:05:00,
2013-07-10 03:15:00,70.6,69.4,29.77,SW,217,0.0,10.0,96,0.00,,,0.00,Wunderground v.1.15,2013-07-10 07:15:00,
2013-07-10 03:24:00,70.6,69.4,29.76,SW,225,0.0,10.0,96,0.00,,,0.00,Wunderground v.1.15,2013-07-10 07:24:00,
2013-07-10 03:35:00,70.6,69.4,29.76,SW,220,1.0,1.0,96,0.00,,,0.00,Wunderground v.1.15,2013-07-10 07:35:00,
2013-07-10 03:40:00,70.6,69.4,29.76,SW,222,0.0,10.0,96,0.00,,,0.00,Wunderground v.1.15,2013-07-10 07:40:00,
2013-07-10 03:50:00,70.6,69.4,29.76,SW,214,0.0,10.0,96,0.00,,,0.00,Wunderground v.1.15,2013-07-10 07:50:00,
2013-07-10 04:00:00,70.6,69.4,29.76,SW,218,0.0,10.0,96,0.00,,,0.00,Wunderground v.1.15,2013-07-10 08:00:00,
2013-07-10 04:05:00,70.6,69.4,29.76,SW,217,0.0,10.0,96,0.00,,,0.00,Wunderground v.1.15,2013-07-10 08:05:00,
2013-07-10 04:20:00,70.6,69.4,29.76,WSW,244,1.0,1.0,96,0.00,,,0.00,Wunderground v.1.15,2013-07-10 08:20:00,
2013-07-10 04:30:00,70.6,69.4,29.76,SW,222,0.0,0.0,96,0.00,,,0.00,Wunderground v.1.15,2013-07-10 08:30:00,
2013-07-10 04:40:00,70.8,69.6,29.76,SW,221,1.0,1.0,96,0.00,,,0.00,Wunderground v.1.15,2013-07-10 08:40:00,
2013-07-10 04:50:00,70.8,69.6,29.76,SW,229,1.0,1.0,96,0.00,,,0.00,Wunderground v.1.15,2013-07-10 08:50:00,
2013-07-10 05:00:00,70.8,69.6,29.76,SW,227,0.0,0.0,96,0.00,,,0.00,Wunderground v.1.15,2013-07-10 09:00:00,
2013-07-10 05:05:00,70.8,69.6,29.76,SW,230,1.0,1.0,96,0.00,,,0.00,Wunderground v.1.15,2013-07-10 09:05:00,
2013-07-10 05:15:00,70.8,69.6,29.76,SW,225,0.0,9.0,96,0.00,,,0.00,Wunderground v.1.15,2013-07-10 09:15:00,
2013-07-10 05:25:00,70.8,69.6,29.76,SW,231,1.0,9.0,96,0.00,,,0.00,Wunderground v.1.15,2013-07-10 09:25:00,
2013-07-10 05:35:00,70.9,69.7,29.76,SW,225,1.0,9.0,96,0.00,,,0.00,Wunderground v.1.15,2013-07-10 09:35:00,
2013-07-10 05:44:00,70.9,69.7,29.76,SSW,207,1.0,5.0,96,0.00,,,0.00,Wunderground v.1.15,2013-07-10 09:44:00,
2013-07-10 05:50:00,70.9,69.7,29.76,SW,217,2.0,2.0,96,0.00,,,0.00,Wunderground v.1.15,2013-07-10 09:50:00,
2013-07-10 06:00:00,71.1,69.9,29.76,SSW,209,1.0,1.0,96,0.00,,,0.00,Wunderground v.1.15,2013-07-10 10:00:00,
2013-07-10 06:05:00,71.1,69.9,29.76,SW,225,1.0,2.0,96,0.00,,,0.00,Wunderground v.1.15,2013-07-10 10:05:00,
2013-07-10 06:15:00,71.1,69.9,29.75,SW,230,2.0,3.0,96,0.00,,,0.00,Wunderground v.1.15,2013-07-10 10:15:00,
2013-07-10 06:24:00,71.3,70.1,29.75,SW,221,1.0,1.0,96,0.00,,,0.00,Wunderground v.1.15,2013-07-10 10:24:00,
2013-07-10 06:30:00,71.3,70.1,29.75,SW,221,1.0,1.0,96,0.00,,,0.00,Wunderground v.1.15,2013-07-10 10:30:00,
2013-07-10 06:40:00,71.5,70.3,29.75,SW,217,1.0,1.0,96,0.00,,,0.00,Wunderground v.1.15,2013-07-10 10:40:00,
2013-07-10 06:49:00,71.6,70.4,29.75,SW,225,1.0,4.0,96,0.00,,,0.00,Wunderground v.1.15,2013-07-10 10:49:00,
2013-07-10 07:00:00,71.6,70.4,29.75,SW,221,1.0,1.0,96,0.00,,,0.00,Wunderground v.1.15,2013-07-10 11:00:00,
2013-07-10 07:05:00,71.8,70.6,29.75,SW,226,1.0,11.0,96,0.00,,,0.00,Wunderground v.1.15,2013-07-10 11:05:00,
2013-07-10 07:15:00,72.0,70.8,29.74,SW,225,1.0,11.0,96,0.00,,,0.00,Wunderground v.1.15,2013-07-10 11:15:00,
2013-07-10 07:24:00,72.1,70.6,29.74,SW,227,1.0,11.0,95,0.00,,,0.00,Wunderground v.1.15,2013-07-10 11:24:00,
2013-07-10 07:35:00,72.5,71.0,29.74,SW,226,0.0,11.0,95,0.00,,,0.00,Wunderground v.1.15,2013-07-10 11:35:00,
2013-07-10 07:44:00,72.8,71.3,29.74,WSW,245,1.0,3.0,95,0.00,,,0.00,Wunderground v.1.15,2013-07-10 11:44:00,
2013-07-10 07:54:00,73.2,71.1,29.73,WSW,237,3.0,11.0,93,0.00,,,0.00,Wunderground v.1.15,2013-07-10 11:54:00,
2013-07-10 08:00:00,73.3,71.2,29.73,SW,223,3.0,11.0,93,0.00,,,0.00,Wunderground v.1.15,2013-07-10 12:00:00,
2013-07-10 08:05:00,73.5,71.0,29.73,SW,227,4.0,11.0,92,0.00,,,0.00,Wunderground v.1.15,2013-07-10 12:05:00,
2013-07-10 08:14:00,73.7,70.9,29.73,SW,220,4.0,5.0,91,0.00,,,0.00,Wunderground v.1.15,2013-07-10 12:14:00,
2013-07-10 08:24:00,73.9,70.8,29.73,SW,232,3.0,3.0,90,0.00,,,0.00,Wunderground v.1.15,2013-07-10 12:24:00,
2013-07-10 08:35:00,73.9,70.8,29.73,WSW,252,3.0,3.0,90,0.00,,,0.00,Wunderground v.1.15,2013-07-10 12:35:00,
2013-07-10 08:44:00,74.0,70.9,29.73,SW,228,2.0,5.0,90,0.00,,,0.00,Wunderground v.1.15,2013-07-10 12:44:00,
2013-07-10 08:54:00,74.2,71.1,29.74,SW,233,3.0,3.0,90,0.00,,,0.00,Wunderground v.1.15,2013-07-10 12:54:00,
2013-07-10 09:00:00,74.0,70.9,29.74,SW,225,3.0,3.0,90,0.00,,,0.00,Wunderground v.1.15,2013-07-10 13:00:00,
2013-07-10 09:05:00,74.0,70.9,29.74,WSW,241,3.0,10.0,90,0.00,,,0.00,Wunderground v.1.15,2013-07-10 13:05:00,
2013-07-10 09:14:00,73.9,70.8,29.74,SW,235,4.0,10.0,90,0.00,,,0.00,Wunderground v.1.15,2013-07-10 13:14:00,
2013-07-10 09:24:00,73.7,70.9,29.74,WSW,244,2.0,10.0,91,0.10,,,0.02,Wunderground v.1.15,2013-07-10 13:24:00,
2013-07-10 09:34:00,73.7,71.5,29.74,WSW,246,3.0,10.0,93,0.07,,,0.03,Wunderground v.1.15,2013-07-10 13:34:00,
2013-07-10 09:39:00,73.7,71.9,29.73,SW,225,3.0,3.0,94,0.11,,,0.04,Wunderground v.1.15,2013-07-10 13:39:00,
2013-07-10 09:49:00,73.7,72.2,29.73,WSW,242,1.0,1.0,95,0.04,,,0.04,Wunderground v.1.15,2013-07-10 13:49:00,
2013-07-10 09:59:00,73.7,72.2,29.73,SW,236,1.0,10.0,95,0.00,,,0.05,Wunderground v.1.15,2013-07-10 13:59:00,
2013-07-10 10:05:00,73.7,72.5,29.73,SW,229,2.0,10.0,96,0.00,,,0.05,Wunderground v.1.15,2013-07-10 14:05:00,
2013-07-10 10:14:00,73.7,72.5,29.73,WSW,239,3.0,4.0,96,0.00,,,0.05,Wunderground v.1.15,2013-07-10 14:14:00,
2013-07-10 10:24:00,73.7,72.5,29.72,WSW,250,3.0,5.0,96,0.00,,,0.05,Wunderground v.1.15,2013-07-10 14:24:00,
2013-07-10 10:34:00,73.0,71.8,29.72,WSW,244,1.0,4.0,96,0.00,,,0.05,Wunderground v.1.15,2013-07-10 14:34:00,
2013-07-10 10:44:00,72.8,71.6,29.73,SW,234,1.0,1.0,96,0.00,,,0.06,Wunderground v.1.15,2013-07-10 14:44:00,
2013-07-10 10:54:00,72.7,71.5,29.72,SW,221,0.0,0.0,96,0.10,,,0.08,Wunderground v.1.15,2013-07-10 14:54:00,
2013-07-10 10:59:00,72.8,71.6,29.72,WSW,244,0.0,0.0,96,0.07,,,0.09,Wunderground v.1.15,2013-07-10 14:59:00,
2013-07-10 11:05:00,72.8,71.6,29.72,SW,225,0.0,11.0,96,0.07,,,0.09,Wunderground v.1.15,2013-07-10 15:05:00,
2013-07-10 11:14:00,73.0,72.1,29.73,SW,227,0.0,11.0,97,0.00,,,0.09,Wunderground v.1.15,2013-07-10 15:14:00,
2013-07-10 11:24:00,73.2,72.3,29.72,SW,227,1.0,11.0,97,0.00,,,0.09,Wunderground v.1.15,2013-07-10 15:24:00,
2013-07-10 11:34:00,73.3,72.1,29.72,SW,236,2.0,11.0,96,0.00,,,0.09,Wunderground v.1.15,2013-07-10 15:34:00,
2013-07-10 11:44:00,73.5,72.3,29.71,WSW,238,2.0,11.0,96,0.00,,,0.09,Wunderground v.1.15,2013-07-10 15:44:00,
2013-07-10 11:54:00,74.0,72.8,29.71,WSW,247,3.0,4.0,96,0.00,,,0.09,Wunderground v.1.15,2013-07-10 15:54:00,
2013-07-10 11:59:00,74.2,73.0,29.71,WSW,242,3.0,11.0,96,0.00,,,0.09,Wunderground v.1.15,2013-07-10 15:59:00,
2013-07-10 12:05:00,74.4,72.9,29.71,SW,230,4.0,11.0,95,0.00,,,0.09,Wunderground v.1.15,2013-07-10 16:05:00,
2013-07-10 12:14:00,74.2,72.4,29.71,SW,222,3.0,6.0,94,0.00,,,0.09,Wunderground v.1.15,2013-07-10 16:14:00,
2013-07-10 12:24:00,74.6,72.4,29.71,WSW,240,5.0,10.0,93,0.00,,,0.09,Wunderground v.1.15,2013-07-10 16:24:00,
2013-07-10 12:34:00,75.1,72.6,29.71,WSW,244,4.0,7.0,92,0.00,,,0.09,Wunderground v.1.15,2013-07-10 16:34:00,
2013-07-10 12:39:00,75.3,72.5,29.70,WSW,238,5.0,5.0,91,0.00,,,0.09,Wunderground v.1.15,2013-07-10 16:39:00,
2013-07-10 12:49:00,75.3,72.2,29.70,WSW,244,5.0,5.0,90,0.00,,,0.09,Wunderground v.1.15,2013-07-10 16:49:00,
2013-07-10 12:59:00,75.3,71.8,29.70,SW,234,7.0,7.0,89,0.00,,,0.09,Wunderground v.1.15,2013-07-10 16:59:00,
2013-07-10 13:05:00,75.3,71.8,29.70,WSW,238,7.0,8.0,89,0.00,,,0.09,Wunderground v.1.15,2013-07-10 17:05:00,
2013-07-10 13:14:00,75.4,71.3,29.69,WSW,244,6.0,8.0,87,0.00,,,0.09,Wunderground v.1.15,2013-07-10 17:14:00,
2013-07-10 13:19:00,75.8,72.0,29.69,SW,221,7.0,7.0,88,0.00,,,0.09,Wunderground v.1.15,2013-07-10 17:19:00,
2013-07-10 13:29:00,76.1,71.6,29.69,WSW,243,5.0,8.0,86,0.00,,,0.09,Wunderground v.1.15,2013-07-10 17:29:00,
2013-07-10 13:39:00,76.5,72.0,29.69,SW,232,5.0,9.0,86,0.00,,,0.09,Wunderground v.1.15,2013-07-10 17:39:00,
2013-07-10 13:44:00,76.8,71.9,29.69,WSW,240,7.0,9.0,85,0.00,,,0.09,Wunderground v.1.15,2013-07-10 17:44:00,
2013-07-10 13:54:00,77.6,72.4,29.67,SW,231,8.0,9.0,84,0.00,,,0.09,Wunderground v.1.15,2013-07-10 17:54:00,
2013-07-10 14:04:00,77.4,72.2,29.67,SW,220,7.0,9.0,84,0.00,,,0.09,Wunderground v.1.15,2013-07-10 18:04:00,
2013-07-10 14:14:00,77.4,72.2,29.68,SW,230,6.0,6.0,84,0.00,,,0.09,Wunderground v.1.15,2013-07-10 18:14:00,
2013-07-10 14:24:00,77.7,72.1,29.67,SW,221,6.0,6.0,83,0.00,,,0.09,Wunderground v.1.15,2013-07-10 18:24:00,
2013-07-10 14:34:00,78.1,72.5,29.67,SW,232,6.0,6.0,83,0.00,,,0.09,Wunderground v.1.15,2013-07-10 18:34:00,
2013-07-10 14:44:00,79.2,71.7,29.67,SW,235,4.0,9.0,78,0.00,,,0.09,Wunderground v.1.15,2013-07-10 18:44:00,
2013-07-10 14:54:00,80.3,72.8,29.66,WSW,250,2.0,6.0,78,0.00,,,0.09,Wunderground v.1.15,2013-07-10 18:54:00,
2013-07-10 15:04:00,79.9,73.2,29.66,WSW,258,3.0,5.0,80,0.00,,,0.09,Wunderground v.1.15,2013-07-10 19:04:00,
2013-07-10 15:14:00,79.8,72.7,29.65,WSW,244,5.0,13.0,79,0.00,,,0.09,Wunderground v.1.15,2013-07-10 19:14:00,
2013-07-10 15:24:00,80.3,73.2,29.65,SW,235,3.0,13.0,79,0.00,,,0.09,Wunderground v.1.15,2013-07-10 19:24:00,
2013-07-10 15:34:00,80.9,74.1,29.65,SW,227,2.0,4.0,80,0.00,,,0.09,Wunderground v.1.15,2013-07-10 19:34:00,
2013-07-10 15:44:00,81.2,73.7,29.64,SW,236,4.0,4.0,78,0.00,,,0.09,Wunderground v.1.15,2013-07-10 19:44:00,
2013-07-10 15:54:00,81.6,74.5,29.63,WSW,244,3.0,13.0,79,0.00,,,0.09,Wunderground v.1.15,2013-07-10 19:54:00,
2013-07-10 16:04:00,81.8,73.5,29.63,SW,229,3.0,13.0,76,0.00,,,0.09,Wunderground v.1.15,2013-07-10 20:04:00,
2013-07-10 16:14:00,82.0,73.7,29.63,WSW,250,4.0,9.0,76,0.00,,,0.09,Wunderground v.1.15,2013-07-10 20:14:00,
2013-07-10 16:24:00,82.6,73.9,29.62,SW,234,2.0,4.0,75,0.00,,,0.09,Wunderground v.1.15,2013-07-10 20:24:00,
2013-07-10 16:29:00,83.0,72.6,29.62,West,271,3.0,9.0,71,0.00,,,0.09,Wunderground v.1.15,2013-07-10 20:29:00,
2013-07-10 16:39:00,83.4,72.2,29.62,WSW,257,5.0,5.0,69,0.00,,,0.09,Wunderground v.1.15,2013-07-10 20:39:00,
2013-07-10 16:49:00,84.0,72.3,29.62,NW,316,2.0,9.0,68,0.00,,,0.09,Wunderground v.1.15,2013-07-10 20:49:00,
2013-07-10 16:54:00,83.8,71.7,29.62,West,266,2.0,9.0,67,0.00,,,0.09,Wunderground v.1.15,2013-07-10 20:54:00,
2013-07-10 17:04:00,84.0,72.3,29.62,WSW,257,3.0,14.0,68,0.00,,,0.09,Wunderground v.1.15,2013-07-10 21:04:00,
2013-07-10 17:14:00,84.0,71.4,29.62,WSW,245,4.0,14.0,66,0.00,,,0.09,Wunderground v.1.15,2013-07-10 21:14:00,
2013-07-10 17:24:00,83.8,72.1,29.63,WSW,239,3.0,14.0,68,0.00,,,0.09,Wunderground v.1.15,2013-07-10 21:24:00,
2013-07-10 17:34:00,83.4,72.2,29.63,WSW,246,1.0,14.0,69,0.00,,,0.09,Wunderground v.1.15,2013-07-10 21:34:00,
2013-07-10 17:44:00,83.0,72.2,29.63,West,274,2.0,14.0,70,0.00,,,0.09,Wunderground v.1.15,2013-07-10 21:44:00,
2013-07-10 17:54:00,82.6,72.7,29.64,WSW,237,1.0,14.0,72,0.00,,,0.09,Wunderground v.1.15,2013-07-10 21:54:00,
2013-07-10 17:59:00,82.6,73.1,29.64,WSW,248,1.0,14.0,73,0.00,,,0.09,Wunderground v.1.15,2013-07-10 21:59:00,
2013-07-10 18:04:00,82.6,73.1,29.64,WSW,237,2.0,14.0,73,0.00,,,0.09,Wunderground v.1.15,2013-07-10 22:04:00,
2013-07-10 18:14:00,82.4,72.5,29.64,SW,232,4.0,4.0,72,0.00,,,0.09,Wunderground v.1.15,2013-07-10 22:14:00,
2013-07-10 18:24:00,82.2,72.7,29.64,WSW,238,5.0,5.0,73,0.00,,,0.09,Wunderground v.1.15,2013-07-10 22:24:00,
2013-07-10 18:34:00,81.8,72.7,29.64,SW,222,4.0,4.0,74,0.00,,,0.09,Wunderground v.1.15,2013-07-10 22:34:00,
2013-07-10 18:39:00,81.8,73.1,29.64,SW,234,3.0,3.0,75,0.00,,,0.09,Wunderground v.1.15,2013-07-10 22:39:00,
2013-07-10 18:49:00,81.4,73.1,29.64,SW,219,2.0,4.0,76,0.00,,,0.09,Wunderground v.1.15,2013-07-10 22:49:00,
2013-07-10 18:59:00,81.2,72.9,29.64,SW,227,1.0,1.0,76,0.00,,,0.09,Wunderground v.1.15,2013-07-10 22:59:00,
2013-07-10 19:04:00,81.1,73.2,29.64,SW,229,1.0,14.0,77,0.00,,,0.09,Wunderground v.1.15,2013-07-10 23:04:00,
2013-07-10 19:14:00,80.9,73.0,29.64,SW,230,2.0,2.0,77,0.00,,,0.09,Wunderground v.1.15,2013-07-10 23:14:00,
2013-07-10 19:24:00,80.3,73.2,29.64,SW,220,1.0,4.0,79,0.00,,,0.09,Wunderground v.1.15,2013-07-10 23:24:00,
2013-07-10 19:34:00,79.9,73.2,29.64,SW,223,1.0,14.0,80,0.00,,,0.09,Wunderground v.1.15,2013-07-10 23:34:00,
2013-07-10 19:44:00,79.6,72.9,29.63,SW,221,0.0,14.0,80,0.00,,,0.09,Wunderground v.1.15,2013-07-10 23:44:00,
2013-07-10 19:54:00,79.4,72.7,29.62,SW,231,1.0,6.0,80,0.00,,,0.09,Wunderground v.1.15,2013-07-10 23:54:00,
2013-07-10 20:04:00,79.2,72.5,29.62,SW,223,3.0,4.0,80,0.00,,,0.09,Wunderground v.1.15,2013-07-11 00:04:00,
2013-07-10 20:14:00,79.2,72.5,29.64,SW,233,4.0,4.0,80,0.00,,,0.09,Wunderground v.1.15,2013-07-11 00:14:00,
2013-07-10 20:19:00,79.2,72.5,29.64,SW,222,4.0,4.0,80,0.00,,,0.09,Wunderground v.1.15,2013-07-11 00:19:00,
2013-07-10 20:29:00,79.0,72.3,29.64,SW,223,5.0,5.0,80,0.00,,,0.09,Wunderground v.1.15,2013-07-11 00:29:00,
2013-07-10 20:54:00,68.3,64.3,29.68,ENE,69,2.0,9.0,87,0.40,,,0.40,Wunderground v.1.15,2013-07-11 00:54:00,
2013-07-10 20:59:00,67.6,64.2,29.68,SSE,150,0.0,0.0,89,0.14,,,0.42,Wunderground v.1.15,2013-07-11 00:59:00,
2013-07-10 21:04:00,66.9,63.9,29.68,South,187,0.0,9.0,90,0.06,,,0.42,Wunderground v.1.15,2013-07-11 01:04:00,
2013-07-10 21:14:00,66.6,64.2,29.65,SE,144,0.0,9.0,92,0.05,,,0.43,Wunderground v.1.15,2013-07-11 01:14:00,
2013-07-10 21:19:00,66.6,64.2,29.65,NE,50,0.0,9.0,92,0.05,,,0.43,Wunderground v.1.15,2013-07-11 01:19:00,
2013-07-10 21:24:00,66.8,64.4,29.68,NNE,25,1.0,9.0,92,0.00,,,0.43,Wunderground v.1.15,2013-07-11 01:24:00,
2013-07-10 21:29:00,66.6,64.2,29.68,ENE,60,1.0,1.0,92,0.00,,,0.43,Wunderground v.1.15,2013-07-11 01:29:00,
2013-07-10 21:34:00,66.6,64.5,29.68,ENE,60,0.0,9.0,93,0.00,,,0.43,Wunderground v.1.15,2013-07-11 01:34:00,
2013-07-10 21:44:00,66.8,64.7,29.70,ENE,60,0.0,9.0,93,0.00,,,0.43,Wunderground v.1.15,2013-07-11 01:44:00,
2013-07-10 21:49:00,66.8,64.7,29.70,ENE,60,0.0,9.0,93,0.00,,,0.43,Wunderground v.1.15,2013-07-11 01:49:00,
2013-07-10 21:54:00,67.1,65.3,29.72,ENE,60,0.0,9.0,94,0.00,,,0.43,Wunderground v.1.15,2013-07-11 01:54:00,
2013-07-10 21:59:00,67.1,65.3,29.72,ENE,60,0.0,9.0,94,0.00,,,0.43,Wunderground v.1.15,2013-07-11 01:59:00,
2013-07-10 22:04:00,66.9,65.1,29.72,ENE,60,0.0,9.0,94,0.00,,,0.43,Wunderground v.1.15,2013-07-11 02:04:00,
2013-07-10 22:14:00,66.8,65.0,29.73,ENE,60,0.0,0.0,94,0.00,,,0.43,Wunderground v.1.15,2013-07-11 02:14:00,
2013-07-10 22:19:00,66.6,65.1,29.73,ENE,60,0.0,0.0,95,0.00,,,0.43,Wunderground v.1.15,2013-07-11 02:19:00,
2013-07-10 22:29:00,66.6,65.4,29.72,ENE,60,0.0,0.0,96,0.00,,,0.43,Wunderground v.1.15,2013-07-11 02:29:00,
2013-07-10 22:34:00,66.6,65.4,29.72,ENE,60,0.0,0.0,96,0.00,,,0.43,Wunderground v.1.15,2013-07-11 02:34:00,
2013-07-10 22:39:00,66.8,65.6,29.73,ENE,60,0.0,0.0,96,0.00,,,0.43,Wunderground v.1.15,2013-07-11 02:39:00,
2013-07-10 22:49:00,66.9,65.7,29.73,ENE,60,0.0,0.0,96,0.00,,,0.43,Wunderground v.1.15,2013-07-11 02:49:00,
2013-07-10 22:54:00,66.9,65.7,29.74,ENE,60,0.0,0.0,96,0.00,,,0.43,Wunderground v.1.15,2013-07-11 02:54:00,
2013-07-10 22:59:00,66.9,65.7,29.74,ENE,60,0.0,0.0,96,0.00,,,0.43,Wunderground v.1.15,2013-07-11 02:59:00,
2013-07-10 23:04:00,67.1,65.9,29.74,ENE,60,0.0,33.0,96,0.00,,,0.43,Wunderground v.1.15,2013-07-11 03:04:00,
2013-07-10 23:14:00,67.1,65.9,29.73,ENE,60,0.0,33.0,96,0.00,,,0.43,Wunderground v.1.15,2013-07-11 03:14:00,
2013-07-10 23:24:00,67.1,65.9,29.73,ENE,60,0.0,33.0,96,0.00,,,0.43,Wunderground v.1.15,2013-07-11 03:24:00,
2013-07-10 23:29:00,67.1,66.2,29.73,ENE,60,0.0,33.0,97,0.00,,,0.43,Wunderground v.1.15,2013-07-11 03:29:00,
2013-07-10 23:34:00,67.3,66.4,29.73,ENE,60,0.0,33.0,97,0.00,,,0.43,Wunderground v.1.15,2013-07-11 03:34:00,
2013-07-10 23:39:00,67.4,66.5,29.73,ENE,60,0.0,33.0,97,0.00,,,0.00,Wunderground v.1.15,2013-07-11 03:39:00,
2013-07-10 23:44:00,67.3,66.4,29.73,ENE,60,0.0,33.0,97,0.00,,,0.00,Wunderground v.1.15,2013-07-11 03:44:00,
2013-07-10 23:54:00,67.3,66.4,29.72,ENE,60,0.0,33.0,97,0.00,,,0.00,Wunderground v.1.15,2013-07-11 03:54:00,
2013-07-10 23:59:00,67.4,66.5,29.72,ENE,60,0.0,33.0,97,0.00,,,0.00,Wunderground v.1.15,2013-07-11 03:59:00,